Tracking 19795 objects as of 20-Jul-2019
HD Live streaming from Space Station
objects crossing your sky now

SL-24 DEB


SL-24 DEB is no longer on orbit


NORAD ID: 39229
Int'l Code: 2013-042C
Perigee: N/A
Apogee: N/A
Inclination: N/A
Period: N/A
Semi major axis: N/A
RCS: N/A
Launch date: August 22, 2013
Source: Commonwealth of Independent States (former USSR) (CIS)
Launch site: Orenburg, Russia (OREN)
Decay date: 2015-10-09

Note: This is SATELLITE DEBRIS
aabbcc
Your satellite tracking list
Your tracking list is empty




NASA's NSSDC Master Catalog

Two Line Element Set (TLE):
1 39229U 13042C   15282.84666819  .16079213  26736-5  48652-3 0  9997
2 39229  97.5159 141.0732 0010929 253.2352 106.7750 16.44212270119325
Source of the keplerian elements: AFSPC